Change the Weather History Date:

Tuesday, September 17, 2013

  Actual Average Record
Temperature  
Mean Temperature 45 °F -  
Max Temperature 46 °F 52 °F 62 °F (2011)
Min Temperature 44 °F 44 °F 35 °F (2008)
Degree Days  
Heating Degree Days 20    
Moisture  
Dew Point 45 °F    
Average Humidity 99    
Maximum Humidity 100    
Minimum Humidity 93    
Precipitation  
Precipitation 0.00 in - - ()
Sea Level Pressure  
Sea Level Pressure 29.81 in    
Wind  
Wind Speed 22 mph ()    
Max Wind Speed 44 mph    
Max Gust Speed -    
Visibility 0.4 miles    
Events Fog , Rain    
Averages and records for this station are not official NWS values.
T = Trace of Precipitation, MM = Missing Value Source: Averaged Metar Reports

Daily Weather History Graph

Daily Weather History Graph

Search for Another Location

Airport or City:

Trip Planner

Search our weather history database for the weather conditions in past years. The results will help you decide how hot, cold, wet, or windy it might be!

Date:

Astronomy

Sep. 17, 2013 Rise Set
Actual Time 6:50 AM CEST 7:14 PM CEST
Civil Twilight 6:21 AM CEST 7:42 PM CEST
Nautical Twilight 5:48 AM CEST 8:15 PM CEST
Astronomical Twilight 5:14 AM CEST 8:49 PM CEST
Moon 5:52 PM CEST (9/17) 4:22 AM CEST (9/17)
Length of Visible Light 13h 20m
Length of Day
12h 24m
Waxing Gibbous, 94% of the Moon is Illuminated
Sep 17
Waxing Gibbous
Sep 19
Full
Sep 27
Last Quarter
Oct 5
New
Oct 12
First Quarter

Hourly Weather History & Observations

Time (CEST) Temp. Dew Point Humidity Pressure Visibility Wind Dir Wind Speed Gust Speed Precip Events Conditions
12:55 AM 44.6 °F 44.6 °F 100% 29.89 in 0.0 mi North - - N/A Fog Fog
1:55 AM 44.6 °F 44.6 °F 100% 29.86 in 0.0 mi North - - N/A Fog Fog
2:00 AM 44 °F 44 °F 99%  in 0 mi West 28.8 mph - -  
2:55 AM 44.6 °F 44.6 °F 100% 29.86 in 0.0 mi North - - N/A Fog Fog
3:55 AM 44.6 °F 44.6 °F 100% 29.83 in 0.0 mi North - - N/A Fog Fog
6:55 AM 44.6 °F 44.6 °F 100% 29.77 in 0.0 mi North - - N/A Fog , Rain Light Rain
7:55 AM 44.6 °F 44.6 °F 100% 29.77 in 0.0 mi North - - N/A Fog Fog
8:00 AM 45 °F 45 °F 100%  in 0 mi WNW 43.7 mph - -  
8:55 AM 44.6 °F 44.6 °F 100% 29.77 in 0.0 mi North - - N/A Fog Fog
9:55 AM 46.4 °F 46.4 °F 100% 29.77 in 0.0 mi North - - N/A Fog Fog
10:55 AM 46.4 °F 46.4 °F 100% 29.77 in 0.0 mi North - - N/A Fog , Rain Light Rain
11:55 AM 46.4 °F 46.4 °F 100% 29.77 in 0.0 mi North - - N/A Fog Fog
12:55 PM 46.4 °F 46.4 °F 100% 29.77 in 0.0 mi North - - N/A Fog Fog
1:55 PM 46.4 °F 46.4 °F 100% 29.77 in 0.0 mi North - - N/A Fog Fog
2:00 PM 46 °F 46 °F 98%  in 0 mi WNW 33.4 mph - -  
2:55 PM 46.4 °F 46.4 °F 100% 29.80 in 0.0 mi North - - N/A Fog Fog
3:55 PM 46.4 °F 46.4 °F 100% 29.77 in 0.0 mi North - - N/A Fog Fog
4:55 PM 46.4 °F 46.4 °F 100% 29.80 in - North - - N/A   Mostly Cloudy
5:55 PM 46.4 °F 46.4 °F 100% 29.80 in - North - - N/A   Scattered Clouds
6:55 PM 46.4 °F 46.4 °F 100% 29.80 in - North - - N/A   Clear
7:55 PM 46.4 °F 44.6 °F 93% 29.83 in - North - - N/A   Clear
8:00 PM 46 °F 45 °F 96%  in 7 mi WNW 10.4 mph - -  
8:55 PM 44.6 °F 42.8 °F 93% 29.83 in - North - - N/A   Mostly Cloudy
9:55 PM 44.6 °F 42.8 °F 93% 29.86 in - North - - N/A   Mostly Cloudy
10:55 PM 44.6 °F 44.6 °F 100% 29.89 in - North - - N/A   Mostly Cloudy
11:55 PM 44.6 °F 44.6 °F 100% 29.89 in - North - - N/A   Mostly Cloudy